Cairns, Australia

12:59 AM AEST on March 26, 2017 (GMT +1000)
Cairns International

Weather History for YBCS - July, 2013

Change the Weather History Date:

Tuesday, July 23, 2013

  Actual Average Record
Temperature  
Mean Temperature 73 °F -  
Max Temperature 80 °F 80 °F 82 °F (1998)
Min Temperature 66 °F 64 °F 50 °F (2011)
Cooling Degree Days 8    
Growing Degree Days 23 (Base 50)    
Moisture  
Dew Point 62 °F    
Average Humidity 68    
Maximum Humidity 94    
Minimum Humidity 42    
Precipitation  
Precipitation 0.00 in 0.03 in - ()
Sea Level Pressure  
Sea Level Pressure 30.04 in    
Wind  
Wind Speed 11 mph ()    
Max Wind Speed 20 mph    
Max Gust Speed -    
Visibility 7.3 miles    
Events      
Averages and records for this station are not official NWS values.
T = Trace of Precipitation, MM = Missing Value Source: Averaged Metar Reports

Daily Weather History Graph

Daily Weather History Graph

Search for Another Location

Airport or City:

Trip Planner

Search our weather history database for the weather conditions in past years. The results will help you decide how hot, cold, wet, or windy it might be!

Date:

Astronomy

Jul. 23, 2013 Rise Set
Actual Time 6:45 AM AEST 6:01 PM AEST
Civil Twilight 6:22 AM AEST 6:24 PM AEST
Nautical Twilight 5:55 AM AEST 6:51 PM AEST
Astronomical Twilight 5:29 AM AEST 7:17 PM AEST
Moon 6:37 PM AEST (7/23) 6:42 AM AEST (7/23)
Length of Visible Light 12h 02m
Length of Day
11h 16m
Full, 100% of the Moon is Illuminated
Jul 23
Full
Jul 30
Last Quarter
Aug 7
New
Aug 14
First Quarter
Aug 21
Full

Hourly Weather History & Observations

Time (AEST) Temp. Heat Index Dew Point Humidity Pressure Visibility Wind Dir Wind Speed Gust Speed Precip Events Conditions
12:00 AM 71 °F - 65 °F 74% 30.05 in - South 9.2 mph - -  
12:00 AM 71.6 °F - 64.4 °F 78% 30.04 in 6.2 mi South 9.2 mph - N/A   Partly Cloudy
12:30 AM 69.8 °F - 64.4 °F 83% 30.04 in 6.2 mi South 11.5 mph - N/A   Partly Cloudy
1:00 AM 70 °F - 64 °F 77% 30.05 in - South 10.4 mph - -  
1:00 AM 69.8 °F - 64.4 °F 83% 30.04 in 6.2 mi South 10.4 mph - N/A   Partly Cloudy
1:30 AM 69.8 °F - 64.4 °F 83% 30.04 in 6.2 mi South 9.2 mph - N/A   Partly Cloudy
2:00 AM 69.8 °F - 64.4 °F 83% 30.01 in 6.2 mi South 9.2 mph - N/A   Partly Cloudy
2:30 AM 68.0 °F - 64.4 °F 88% 30.01 in 6.2 mi SSE 9.2 mph - N/A   Partly Cloudy
3:00 AM 70 °F - 64 °F 74% 30.01 in - South 11.5 mph - -  
3:00 AM 69.8 °F - 64.4 °F 83% 30.01 in 6.2 mi South 11.5 mph - N/A   Partly Cloudy
3:30 AM 69.8 °F - 64.4 °F 83% 30.01 in 6.2 mi SSE 11.5 mph - N/A   Partly Cloudy
4:00 AM 67 °F - 63 °F 84% 30.02 in - SE 10.4 mph - -  
4:00 AM 66.2 °F - 62.6 °F 88% 30.01 in 6.2 mi SE 10.4 mph - N/A   Partly Cloudy
4:30 AM 66.2 °F - 64.4 °F 94% 30.01 in 6.2 mi SE 9.2 mph - N/A   Partly Cloudy
5:00 AM 68.0 °F - 62.6 °F 83% 30.01 in 6.2 mi SSE 9.2 mph - N/A   Partly Cloudy
5:30 AM 68.0 °F - 62.6 °F 83% 30.01 in 6.2 mi SE 10.4 mph - N/A   Partly Cloudy
6:00 AM 69 °F - 62 °F 72% 30.04 in 19 mi SSE 8.1 mph - -   Partly Cloudy
6:00 AM 69.8 °F - 62.6 °F 78% 30.04 in 6.2 mi SSE 8.1 mph - N/A   Partly Cloudy
6:30 AM 69.8 °F - 62.6 °F 78% 30.04 in 6.2 mi SSE 9.2 mph - N/A   Scattered Clouds
7:00 AM 71 °F - 62 °F 66% 30.06 in - South 12.7 mph - -  
7:00 AM 71.6 °F - 62.6 °F 73% 30.04 in 6.2 mi South 12.7 mph - N/A   Scattered Clouds
7:30 AM 71.6 °F - 62.6 °F 73% 30.04 in 6.2 mi South 12.7 mph - N/A   Scattered Clouds
8:00 AM 71.6 °F - 62.6 °F 73% 30.06 in 6.2 mi South 12.7 mph - N/A   Scattered Clouds
8:30 AM 71.6 °F - 62.6 °F 73% 30.06 in 6.2 mi South 13.8 mph - N/A   Scattered Clouds
9:00 AM 73 °F - 62 °F 59% 30.09 in 19 mi South 11.5 mph - -   Partly Cloudy
9:00 AM 73.4 °F - 62.6 °F 69% 30.06 in 6.2 mi South 11.5 mph - N/A   Scattered Clouds
9:30 AM 75.2 °F - 62.6 °F 65% 30.09 in 6.2 mi SSE 13.8 mph - N/A   Partly Cloudy
10:00 AM 76 °F - 63 °F 56% 30.10 in - South 18.4 mph - -  
10:00 AM 77.0 °F - 62.6 °F 61% 30.09 in 6.2 mi South 18.4 mph - N/A   Partly Cloudy
10:30 AM 78.8 °F - 62.6 °F 57% 30.06 in 6.2 mi SSE 19.6 mph - N/A   Partly Cloudy
11:00 AM 77.0 °F - 62.6 °F 61% 30.06 in 6.2 mi SE 19.6 mph - N/A   Scattered Clouds
12:00 PM 79 °F - 62 °F 46% 30.06 in 19 mi SSE 16.1 mph - -   Partly Cloudy
12:00 PM 78.8 °F - 62.6 °F 57% 30.06 in 6.2 mi SSE 16.1 mph - N/A   Partly Cloudy
1:00 PM 79 °F - 62 °F 46% 30.05 in - SE 18.4 mph - -  
1:00 PM 78.8 °F - 62.6 °F 57% 30.04 in 6.2 mi SE 18.4 mph - N/A   Partly Cloudy
1:30 PM 78.8 °F - 60.8 °F 54% 30.04 in 6.2 mi SE 18.4 mph - N/A   Partly Cloudy
2:00 PM 80.6 °F 81.5 °F 60.8 °F 51% 30.01 in 6.2 mi SE 17.3 mph - N/A   Partly Cloudy
2:30 PM 78.8 °F - 59.0 °F 51% 30.01 in 6.2 mi SE 19.6 mph - N/A   Partly Cloudy
3:00 PM 79 °F - 60 °F 42% 30.01 in 19 mi SE 17.3 mph - -   Partly Cloudy
3:00 PM 78.8 °F - 60.8 °F 54% 30.01 in 6.2 mi SE 17.3 mph - N/A   Partly Cloudy
3:30 PM 78.8 °F - 60.8 °F 54% 30.01 in 6.2 mi SE 16.1 mph - N/A   Partly Cloudy
5:00 PM 77.0 °F - 59.0 °F 54% 30.01 in 6.2 mi SE 12.7 mph - N/A   Partly Cloudy
5:30 PM 73.4 °F - 60.8 °F 65% 30.04 in 6.2 mi SE 12.7 mph - N/A   Partly Cloudy
6:00 PM 72 °F - 61 °F 60% 30.05 in - SE 10.4 mph - -  
6:00 PM 71.6 °F - 60.8 °F 69% 30.04 in 6.2 mi SE 10.4 mph - N/A   Scattered Clouds
6:30 PM 71.6 °F - 60.8 °F 69% 30.06 in 6.2 mi SE 11.5 mph - N/A   Mostly Cloudy
7:00 PM 72 °F - 61 °F 61% 30.08 in - SSE 8.1 mph - -  
7:00 PM 71.6 °F - 60.8 °F 69% 30.06 in 6.2 mi SSE 8.1 mph - N/A   Mostly Cloudy
7:30 PM 71.6 °F - 60.8 °F 69% 30.06 in 6.2 mi South 6.9 mph - N/A   Mostly Cloudy
8:00 PM 71.6 °F - 60.8 °F 69% 30.06 in 6.2 mi South 6.9 mph - N/A   Mostly Cloudy
8:30 PM 71.6 °F - 60.8 °F 69% 30.06 in 6.2 mi South 5.8 mph - N/A   Scattered Clouds
9:00 PM 71 °F - 60 °F 59% 30.08 in - South 5.8 mph - -  
9:00 PM 71.6 °F - 59.0 °F 64% 30.06 in 6.2 mi South 5.8 mph - N/A   Scattered Clouds
9:30 PM 71.6 °F - 59.0 °F 64% 30.06 in 6.2 mi South 9.2 mph - N/A   Mostly Cloudy
10:00 PM 71 °F - 60 °F 59% 30.09 in - South 9.2 mph - -  
10:00 PM 71.6 °F - 59.0 °F 64% 30.06 in 6.2 mi South 9.2 mph - N/A   Scattered Clouds
10:30 PM 69.8 °F - 59.0 °F 68% 30.06 in 6.2 mi South 11.5 mph - N/A   Scattered Clouds
11:00 PM 71.6 °F - 59.0 °F 64% 30.06 in 6.2 mi South 12.7 mph - N/A   Mostly Cloudy
11:30 PM 71.6 °F - 59.0 °F 64% 30.06 in 6.2 mi SSE 13.8 mph - N/A   Mostly Cloudy